Tracking 29781 objects as of 16-Oct-2024
HD Live streaming from Space Station
objects crossing your sky now

AAC-AIS-SAT3

Track AAC-AIS-SAT3 now!
10-day predictions


NORAD ID: 58997
Int'l Code: 2023-174DJ
Perigee: 640.4 km
Apogee: 651.9 km
Inclination: 97.7 °
Period: 97.5 minutes
Semi major axis: 7017 km
RCS: Unknown
Launch date: November 11, 2023
Source: United Kingdom (UK)
Launch site: AIR FORCE WESTERN TEST RANGE (AFWTR)
Your satellite tracking list
Your tracking list is empty




NASA's NSSDC Master Catalog

Two Line Element Set (TLE):
1 58997U 23174DJ  24289.82834051  .00009736  00000-0  13879-2 0  9996
2 58997  97.7083 353.5910 0008172 150.1249 210.0430 14.76942935 50959
Source of the keplerian elements: AFSPC